Flag for U.S.A. Weather past 2 weeks in Houston, Texas, U.S.A.

Now
83 °F

Mostly cloudy.


Feels Like: 89 °F
Forecast: 71 / 90 °F
Wind: 6 mph from Southeast

Location: Houston Hobby Airport

Current Time: Aug 31, 2015 at 1:16:04 PM

Latest Report: Aug 31, 2015 at 12:53 PM


Visibility: 10 mi

Pressure: 30.06 "Hg

Humidity: 72%

Dew point: 73 °F

Location of HoustonLocation

Historic Weather in Houston — Graph

°F

Houston temperature yesterday

Maximum temperature yesterday: 89 °F (at 1:53 PM)
Minimum temperature yesterday: 72 °F (at 5:53 AM)
Average temperature yesterday: 80 °F

Past Weeks' High & Low Weather Summary

 TemperatureHumidityPressure
High96 °F (Aug 24, 3:53 PM)94% (Aug 19, 11:53 PM)30.14 "Hg (Aug 19, 11:53 PM)
Low72 °F (Aug 27, 2:53 AM)36% (Aug 27, 4:53 PM)29.79 "Hg (Aug 19, 6:53 PM)
Average81 °F73%29.98 "Hg
* Reported Aug 16 11:53 AM — Aug 31 11:53 AM, Houston, Weather by CustomWeather, © 2015

Note: Actual official high and low records may vary slightly from our data, if they occured in-between our weather recording intervals... More about our weather records

Advertising

Houston weather history for previous 24 hours

 ConditionsComfort  
Time TempWeatherWind HumidityBarometerVisibility
11:53 AM
Mon, Aug 31
84 °FOvercast.6 mph65%30.06 "Hg10 mi
10:53 AM85 °FBroken clouds.5 mph65%30.05 "Hg10 mi
9:53 AM84 °FBroken clouds.No wind70%30.04 "Hg10 mi
8:53 AM82 °FPartly sunny.No wind74%30.03 "Hg10 mi
7:53 AM77 °FPartly cloudy.No wind85%30.02 "Hg10 mi
6:53 AM74 °FPartly cloudy.No wind88%30.00 "Hg10 mi
5:53 AM73 °FPassing clouds.No wind88%29.99 "Hg10 mi
4:53 AM73 °FPassing clouds.No wind90%29.98 "Hg10 mi
3:53 AM75 °FPassing clouds.No wind82%29.98 "Hg10 mi
2:53 AM75 °FPassing clouds.3 mph82%29.98 "Hg10 mi
1:53 AM74 °FPassing clouds.No wind88%29.99 "Hg10 mi
12:53 AM76 °FPassing clouds.No wind80%29.99 "Hg10 mi
11:53 PM
Sun, Aug 30
78 °FPassing clouds.No wind74%30.00 "Hg10 mi
10:53 PM77 °FPassing clouds.3 mph77%30.00 "Hg10 mi
9:53 PM79 °FPassing clouds.3 mph72%30.00 "Hg10 mi
8:53 PM80 °FPartly cloudy.5 mph69%29.98 "Hg10 mi
7:53 PM82 °FBroken clouds.7 mph63%29.97 "Hg10 mi
6:53 PM85 °FBroken clouds.7 mph57%29.96 "Hg10 mi
5:53 PM86 °FBroken clouds.8 mph55%29.96 "Hg10 mi
4:53 PM88 °FBroken clouds.3 mph48%29.96 "Hg10 mi
3:53 PM87 °FBroken clouds.5 mph53%29.98 "Hg10 mi
2:53 PM88 °FBroken clouds.No wind46%30.01 "Hg10 mi
1:53 PM89 °FBroken clouds.No wind43%30.02 "Hg10 mi
Weather by CustomWeather, © 2015

See weather overviewHow to use our weather pages